[[{"header":{"parameterUnit":"m.s-1","parameterCategory":1,"la1":30.2991,"la2":30.254,"lo1":-89.0895,"lo2":-89.0444,"dy":0.0017,"dx":0.0017,"nx":28,"ny":28,"refTime":"2024-07-14T21:00:00:Z","depth":0,"parameterNumber":2,"parameterNumberName":"U-component_of_WINDS"},"data":[0,0,0,0,0,0,0,0,0,0,0,0,0,0,0,0,0,0,0,0,0,0,0,0,0,0,0,0,0,0,0,0,0,0,0,0,0,0,0,0,0,0,0,0,0,0,0,0,0,0,0,0,0,0,0,0,0,0,2.1409,2.141,0,2.1525,2.1526,2.1527,2.1521,2.1519,2.1517,2.1516,2.1646,2.1651,2.1656,0,0,0,0,0,0,0,0,0,0,0,0,0,2.1192,2.1196,2.1409,2.141,2.1411,2.1524,2.1526,2.1528,2.1521,2.1519,2.1517,2.1515,2.1644,2.165,2.1656,0,0,0,0,0,0,0,0,0,0,0,0,0,2.1295,2.1197,2.1408,2.1421,2.1424,2.1524,2.1526,2.1528,2.1521,2.1519,2.1516,2.1514,2.1642,2.165,2.1657,2.1755,0,0,2.168,2.1684,0,0,0,0,0,0,0,0,2.1289,2.1303,2.1418,2.1421,2.1423,2.1505,2.1497,2.1605,2.1522,2.1485,2.1516,2.1513,2.1602,2.1613,2.1641,2.1762,2.1767,2.1681,2.1686,2.1689,2.1691,0,0,0,0,0,0,0,2.1282,2.1298,2.1455,2.142,2.1423,2.1425,2.1437,2.1518,2.1557,2.1488,2.1487,2.1501,2.1603,2.1633,2.1644,2.1769,2.1681,2.1688,2.1692,2.1695,2.1977,2.198,0,0,0,0,0,0,2.1271,2.1292,2.1451,2.1458,2.1348,2.1431,2.1444,2.1482,2.1556,2.1564,2.1503,2.15,2.1621,2.1635,2.1648,2.1768,2.1689,2.1696,2.17,2.1974,2.1978,2.1981,0,0,0,0,0,0,2.1266,2.1285,2.1446,2.1375,2.1396,2.1437,2.148,2.1485,2.1515,2.1567,2.1575,2.1526,2.162,2.1637,2.1728,2.1772,2.1699,2.1706,2.1971,2.1975,2.1979,2.2008,0,0,0,0,0,0,2.126,2.1283,2.1318,2.1376,2.14,2.1521,2.1482,2.149,2.1527,2.1524,2.159,2.1599,2.1619,2.1717,2.1736,2.1781,2.1712,2.1967,2.1973,2.1978,2.2003,2.2013,2.2021,0,0,0,0,0,2.1252,2.1325,2.132,2.134,2.1444,2.1524,2.1538,2.1556,2.1531,2.1568,2.1601,2.1597,2.1764,2.1726,2.1747,2.1796,2.1964,2.1971,2.1977,2.1999,2.2011,2.202,0,0,0,0,0,0,2.1276,2.1332,2.1328,2.1421,2.1467,2.1522,2.157,2.1568,2.1625,2.1621,2.1645,2.166,2.1751,2.1783,2.1739,2.1895,2.1861,2.1873,2.1871,2.1882,2.1891,2.1882,2.1719,0,0,0,0,0,2.1291,2.1347,2.1395,2.1473,2.1495,2.1529,2.1564,2.1574,2.1624,2.1645,2.1685,2.1737,2.1801,2.1844,2.1906,2.2008,2.2023,2.2052,2.206,2.2067,2.2077,2.2134,2.2147,2.2002,2.2002,2.2002,0,0,2.1325,2.1363,2.1398,2.1478,2.1515,2.1576,2.1545,2.1612,2.1658,2.1657,2.1743,2.1774,2.1835,2.1931,2.1975,2.196,2.212,2.2076,2.2081,2.2087,2.2142,2.2156,2.2168,2.2007,2.2006,2.2005,0,0,2.1417,2.145,2.1518,2.1554,2.1609,2.163,2.1647,2.1702,2.1721,2.1808,2.1808,2.1865,2.1975,2.2018,2.2054,2.2161,2.216,2.2181,2.2227,2.2282,2.2293,2.2303,2.2342,2.2356,2.219,2.219,2.219,0,2.1453,2.1541,2.1554,2.1619,2.1656,2.1653,2.1723,2.1759,2.1833,2.186,2.1841,2.1977,2.2018,2.2124,2.215,2.2179,2.22,2.2173,2.229,2.23,2.231,2.2347,2.2362,2.2192,2.2192,2.2192,2.2192,0,2.1582,2.1644,2.1692,2.1758,2.18,2.1868,2.1895,2.1936,2.1942,2.1966,2.2055,2.2103,2.2175,2.2201,2.2209,2.2309,2.2297,2.2284,2.2251,2.2326,2.2361,2.2375,2.2195,2.2195,2.2194,2.2193,0,0,2.1694,2.1764,2.1782,2.1812,2.1871,2.1921,2.199,2.2055,2.209,2.2142,2.2201,2.2293,2.228,2.2322,2.2335,2.2383,2.2465,2.2364,2.2366,2.2381,2.2578,2.2588,2.2604,2.2464,2.2466,2.2469,2.2573,0,2.1793,2.1909,2.1922,2.2028,2.2085,2.2083,2.2142,2.2187,2.2212,2.2267,2.2296,2.236,2.2339,2.2363,2.241,2.2444,2.2505,2.2437,2.2522,2.2525,2.2507,2.2622,2.2633,2.2729,2.2587,2.2589,2.2591,0,2.1923,2.1972,2.2082,2.2132,2.2157,2.221,2.2271,2.2322,2.2374,2.2389,2.2433,2.244,2.2514,2.2476,2.258,2.2534,2.257,2.2592,2.2596,2.2605,2.2563,2.2635,2.276,2.2775,2.2613,2.2611,2.2609,0,2.1994,2.2089,2.2166,2.2192,2.2252,2.2289,2.2317,2.2365,2.2404,2.2458,2.2484,2.2548,2.2584,2.2635,2.266,2.263,2.2762,2.2727,2.2779,2.2778,2.2808,2.2805,2.2941,2.283,2.2829,2.2829,2.2829,0,2.2102,2.217,2.2198,2.2246,2.2322,2.2338,2.2414,2.2441,2.2484,2.2539,2.2543,2.2596,2.2625,2.2683,2.2704,2.2787,2.2803,2.2819,2.2824,2.2819,2.2817,2.2844,2.2838,2.2833,2.2832,2.2831,2.2831,0,2.2195,2.2216,2.23,2.2349,2.2363,2.2417,2.246,2.2509,2.2531,2.2602,2.262,2.2657,2.2726,2.2755,2.2841,2.2855,2.295,2.295,2.2931,2.2933,2.2983,2.2978,2.3141,2.3163,2.3036,2.3038,2.3039,0,2.2263,2.2314,2.2367,2.2401,2.2429,2.2486,2.2524,2.2542,2.2582,2.2644,2.2685,2.2752,2.2807,2.2917,2.2955,2.3021,2.3023,2.3075,2.3033,2.3026,2.3024,2.3021,2.3027,2.3083,2.3084,2.3085,2.3086,0,2.2382,2.2389,2.2441,2.2497,2.254,2.2586,2.2631,2.2661,2.2687,2.2732,2.2799,2.2841,2.2926,2.2994,2.3062,2.3095,2.3096,2.3099,2.3114,2.3111,2.3098,2.3106,2.2953,2.3095,2.3095,2.3094,2.3093,2.3093,2.2465,2.251,2.2553,2.2611,2.2645,2.2687,2.2734,2.2761,2.2816,2.2883,2.2892,2.2964,2.3016,2.3105,2.3141,2.32,2.3188,2.321,2.3216,2.3222,2.3225,2.3087,2.3213,2.3213,2.3212,2.3212,2.3212,0,2.2585,2.2611,2.2664,2.2724,2.277,2.2762,2.2811,2.2852,2.2914,2.2959,2.3011,2.3089,2.3155,2.3196,2.3263,2.3303,2.3305,2.332,2.3318,2.3325,2.3232,2.3212,2.3316,2.3316,2.3316,2.3316,2.3316,2.3316,2.2653,2.2727,2.274,2.2833,2.286,2.2928,2.2956,2.2996,2.3031,2.3117,2.3169,2.3194,2.3239,2.3308,2.3368,2.3379,2.3404,2.342,2.343,2.3343,2.3332,2.3322,2.3303,2.3425,2.3425,2.3519,2.352,2.352]},{"header":{"parameterUnit":"m.s-1","parameterCategory":1,"la1":30.2991,"la2":30.254,"lo1":-89.0895,"lo2":-89.0444,"dy":0.0017,"dx":0.0017,"nx":28,"ny":28,"refTime":"2024-07-14T21:00:00:Z","depth":0,"parameterNumber":3,"parameterNumberName":"V-component_of_WINDS"},"data":[0,0,0,0,0,0,0,0,0,0,0,0,0,0,0,0,0,0,0,0,0,0,0,0,0,0,0,0,0,0,0,0,0,0,0,0,0,0,0,0,0,0,0,0,0,0,0,0,0,0,0,0,0,0,0,0,0,0,-0.921,-0.9209,0,-0.9109,-0.9108,-0.9107,-0.9033,-0.9032,-0.9032,-0.9031,-0.8926,-0.8924,-0.8921,0,0,0,0,0,0,0,0,0,0,0,0,0,-0.9337,-0.9335,-0.921,-0.9208,-0.9207,-0.9109,-0.9108,-0.9107,-0.9033,-0.9032,-0.9031,-0.9031,-0.8927,-0.8924,-0.8921,0,0,0,0,0,0,0,0,0,0,0,0,0,-0.9264,-0.9334,-0.921,-0.9159,-0.9153,-0.911,-0.9108,-0.9106,-0.9033,-0.9032,-0.9031,-0.903,-0.8927,-0.8924,-0.8921,-0.892,0,0,-0.8911,-0.8909,0,0,0,0,0,0,0,0,-0.9268,-0.9259,-0.9167,-0.9162,-0.9156,-0.9083,-0.9114,-0.9044,-0.9033,-0.9079,-0.9031,-0.903,-0.8979,-0.8971,-0.8954,-0.8915,-0.891,-0.891,-0.8908,-0.8907,-0.8906,0,0,0,0,0,0,0,-0.9273,-0.9263,-0.917,-0.9166,-0.9159,-0.9141,-0.9129,-0.9101,-0.9035,-0.9075,-0.9069,-0.9058,-0.8975,-0.8958,-0.8951,-0.8909,-0.8911,-0.8908,-0.8906,-0.8904,-0.8865,-0.8866,0,0,0,0,0,0,-0.9286,-0.9268,-0.9173,-0.9167,-0.9211,-0.9139,-0.9126,-0.9107,-0.9035,-0.9023,-0.9059,-0.9055,-0.8964,-0.8955,-0.8947,-0.8942,-0.8907,-0.8904,-0.8902,-0.8864,-0.8865,-0.8866,0,0,0,0,0,0,-0.9289,-0.9279,-0.9177,-0.9216,-0.9201,-0.9138,-0.9117,-0.9106,-0.9088,-0.9024,-0.9011,-0.9053,-0.8963,-0.8952,-0.8928,-0.8937,-0.8902,-0.8899,-0.8863,-0.8864,-0.8865,-0.8931,0,0,0,0,0,0,-0.9293,-0.928,-0.9279,-0.9216,-0.92,-0.9159,-0.9117,-0.9104,-0.9083,-0.9076,-0.9015,-0.9004,-0.8961,-0.8933,-0.8924,-0.8932,-0.8897,-0.8861,-0.8863,-0.8865,-0.8927,-0.8934,-0.894,0,0,0,0,0,-0.9298,-0.93,-0.9279,-0.9268,-0.9197,-0.916,-0.915,-0.9102,-0.9084,-0.9082,-0.9041,-0.9006,-0.8938,-0.8931,-0.8921,-0.8927,-0.8861,-0.8863,-0.8865,-0.8924,-0.8933,-0.894,0,0,0,0,0,0,-0.9364,-0.9291,-0.9267,-0.9249,-0.9212,-0.9148,-0.9144,-0.9112,-0.9078,-0.9074,-0.9015,-0.9001,-0.8984,-0.8953,-0.8947,-0.8923,-0.8895,-0.8895,-0.8944,-0.8951,-0.8957,-0.8965,-0.8894,0,0,0,0,0,-0.9377,-0.9354,-0.9291,-0.9281,-0.9264,-0.9208,-0.919,-0.9156,-0.9114,-0.9098,-0.9055,-0.9016,-0.8985,-0.8966,-0.8935,-0.8923,-0.8909,-0.8923,-0.8929,-0.8935,-0.8935,-0.8928,-0.8933,-0.8873,-0.8873,-0.8873,0,0,-0.9403,-0.936,-0.9348,-0.9294,-0.926,-0.9238,-0.9194,-0.9172,-0.9154,-0.9094,-0.9069,-0.9036,-0.8988,-0.8971,-0.8961,-0.8945,-0.8949,-0.8937,-0.8942,-0.8939,-0.893,-0.8936,-0.8941,-0.8874,-0.8874,-0.8874,0,0,-0.9437,-0.9403,-0.9392,-0.936,-0.9311,-0.9274,-0.9272,-0.9213,-0.919,-0.9164,-0.9119,-0.9097,-0.9046,-0.9015,-0.8992,-0.9018,-0.8984,-0.901,-0.9042,-0.9035,-0.904,-0.9044,-0.9054,-0.9058,-0.901,-0.9011,-0.9011,0,-0.9475,-0.9439,-0.9389,-0.937,-0.9348,-0.9294,-0.9282,-0.9254,-0.9197,-0.9183,-0.9166,-0.9103,-0.9067,-0.9041,-0.9048,-0.9031,-0.9027,-0.9016,-0.9044,-0.9047,-0.905,-0.9059,-0.9062,-0.9014,-0.9014,-0.9013,-0.9013,0,-0.9488,-0.9464,-0.9461,-0.9409,-0.9387,-0.9371,-0.9319,-0.9302,-0.9272,-0.9237,-0.9212,-0.9167,-0.9126,-0.9118,-0.9087,-0.9089,-0.9081,-0.9055,-0.9025,-0.906,-0.9067,-0.907,-0.9019,-0.9018,-0.9017,-0.9016,0,0,-0.9559,-0.9483,-0.9482,-0.9459,-0.9403,-0.9383,-0.9366,-0.9327,-0.9314,-0.9278,-0.9262,-0.9222,-0.9198,-0.9172,-0.9137,-0.9132,-0.9157,-0.9106,-0.9104,-0.9117,-0.9157,-0.9177,-0.9181,-0.9135,-0.9135,-0.9135,-0.9161,0,-0.9585,-0.9552,-0.9508,-0.949,-0.9468,-0.9418,-0.9403,-0.9367,-0.9335,-0.9311,-0.9274,-0.9247,-0.9218,-0.9202,-0.9194,-0.9155,-0.9164,-0.9153,-0.9119,-0.9118,-0.9132,-0.9185,-0.9205,-0.9231,-0.9164,-0.9164,-0.9164,0,-0.961,-0.9579,-0.9558,-0.9506,-0.9495,-0.9482,-0.9445,-0.9423,-0.9381,-0.9358,-0.9331,-0.9294,-0.9274,-0.9249,-0.922,-0.9214,-0.9198,-0.9177,-0.9177,-0.9171,-0.9143,-0.9181,-0.9238,-0.9242,-0.9168,-0.9168,-0.9167,0,-0.9665,-0.9617,-0.9599,-0.958,-0.9518,-0.9511,-0.9485,-0.9443,-0.9423,-0.939,-0.9377,-0.9342,-0.9323,-0.9297,-0.9252,-0.9237,-0.9229,-0.9199,-0.9209,-0.921,-0.9208,-0.9208,-0.9264,-0.9199,-0.9199,-0.9199,-0.9198,0,-0.9698,-0.9688,-0.9623,-0.9612,-0.9599,-0.9549,-0.9538,-0.9507,-0.9471,-0.9453,-0.9408,-0.9392,-0.9334,-0.9311,-0.9276,-0.9258,-0.925,-0.923,-0.9221,-0.9234,-0.9237,-0.9222,-0.9219,-0.92,-0.9199,-0.9199,-0.9199,0,-0.9756,-0.9712,-0.9689,-0.9634,-0.962,-0.9613,-0.9565,-0.9553,-0.9519,-0.9497,-0.9489,-0.9435,-0.9407,-0.936,-0.9317,-0.9293,-0.9282,-0.9267,-0.9296,-0.9291,-0.9303,-0.9303,-0.9351,-0.9355,-0.9288,-0.9289,-0.9289,0,-0.978,-0.9771,-0.9715,-0.9701,-0.9677,-0.9654,-0.9634,-0.9585,-0.9567,-0.9521,-0.9514,-0.9483,-0.9454,-0.9411,-0.9368,-0.9336,-0.9319,-0.9338,-0.9313,-0.9328,-0.9319,-0.932,-0.9319,-0.9343,-0.9344,-0.9345,-0.9346,0,-0.9826,-0.9806,-0.978,-0.9747,-0.9726,-0.9697,-0.9666,-0.9657,-0.9601,-0.9583,-0.9554,-0.9533,-0.949,-0.946,-0.9422,-0.9394,-0.9361,-0.9354,-0.9355,-0.9368,-0.9385,-0.9376,-0.9312,-0.9353,-0.9352,-0.9352,-0.9351,-0.9351,-0.9867,-0.9858,-0.9818,-0.9791,-0.9764,-0.9737,-0.9723,-0.9688,-0.9663,-0.9626,-0.9599,-0.9572,-0.9533,-0.9479,-0.9454,-0.9432,-0.9417,-0.9418,-0.9418,-0.9419,-0.9424,-0.939,-0.9425,-0.9425,-0.9424,-0.9424,-0.9424,0,-0.9912,-0.9885,-0.9861,-0.982,-0.9799,-0.9772,-0.9737,-0.9721,-0.9699,-0.9665,-0.964,-0.9607,-0.9578,-0.9534,-0.9501,-0.9492,-0.9477,-0.9485,-0.9485,-0.948,-0.9439,-0.9442,-0.9499,-0.9499,-0.9499,-0.9499,-0.9499,-0.9499,-0.9933,-0.9916,-0.9891,-0.986,-0.9832,-0.9807,-0.979,-0.9765,-0.9738,-0.9704,-0.968,-0.9652,-0.9615,-0.958,-0.9552,-0.954,-0.953,-0.9544,-0.9527,-0.9489,-0.9482,-0.9476,-0.9478,-0.9542,-0.9542,-0.9569,-0.9569,-0.957]}]]